Muscle Shoals, AL

9:22 PM CST on December 08, 2019 (GMT -0600)
Northwest Alabama Regional

Weather History for KMSL - October, 2019

Change the Weather History Date:

Tuesday, October 29, 2019

  Actual Average Record
Temperature  
Mean Temperature 57 °F 58 °F  
Max Temperature 64 °F 70 °F 88 °F (1940)
Min Temperature 50 °F 46 °F 26 °F (1939)
Degree Days  
Heating Degree Days 8 8  
Month to date heating degree days 108 138  
Since 1 July heating degree days 108 153  
Cooling Degree Days 0 1  
Month to date cooling degree days 142 59  
Year to date cooling degree days 2500 1861  
Growing Degree Days 7 (Base 50)    
Moisture  
Dew Point 52 °F    
Average Humidity 82    
Maximum Humidity 97    
Minimum Humidity 67    
Precipitation  
Precipitation 0.00 in 0.12 in 1.12 in (1970)
Month to date precipitation 5.15 3.19  
Year to date precipitation 51.67 42.62  
Snow  
Snow 0.00 in - - ()
Month to date snowfall 0.0  
Since 1 July snowfall 0.0  
Since 1 September snowfall 0.0  
Snow Depth 0.00 in    
Sea Level Pressure  
Sea Level Pressure 30.12 in    
Wind  
Wind Speed 3 mph (ENE)    
Max Wind Speed 9 mph    
Max Gust Speed 12 mph    
Visibility 7 miles    
Events Fog    
T = Trace of Precipitation, MM = Missing Value Source: NWS Daily Summary

Daily Weather History Graph

Daily Weather History Graph

Search for Another Location

Airport or City:

Astronomy

Oct. 29, 2019 Rise Set
Actual Time 7:08 AM CDT 5:59 PM CDT
Civil Twilight 6:42 AM CDT 6:25 PM CDT
Nautical Twilight 6:12 AM CDT 6:55 PM CDT
Astronomical Twilight 5:43 AM CDT 7:24 PM CDT
Moon 8:39 AM CDT (10/29) 7:27 PM CDT (10/29)
Length of Visible Light 11h 43m
Length of Day
10h 51m
Waxing Crescent, 3% of the Moon is Illuminated
Oct 29
Waxing Crescent
Nov 4
First Quarter
Nov 12
Full
Nov 19
Last Quarter
Nov 26
New

Hourly Weather History & Observations

Time (CDT) Temp. Dew Point Humidity Pressure Visibility Wind Dir Wind Speed Gust Speed Precip Events Conditions
12:31 AM 51.1 °F 48.9 °F 92% 30.09 in 1.2 mi Calm Calm - N/A   Scattered Clouds
12:42 AM 51.1 °F 48.9 °F 92% 30.09 in 3.0 mi Calm Calm - N/A   Partly Cloudy
12:53 AM 51.1 °F 48.9 °F 92% 30.09 in 4.0 mi Calm Calm - N/A   Clear
1:28 AM 51.1 °F 48.9 °F 92% 30.09 in 3.0 mi Calm Calm - N/A   Scattered Clouds
1:37 AM 50.0 °F 48.0 °F 93% 30.10 in 5.0 mi Calm Calm - N/A   Mostly Cloudy
1:45 AM 50.0 °F 48.0 °F 93% 30.10 in 1.5 mi Calm Calm - N/A   Mostly Cloudy
1:49 AM 51.8 °F 48.2 °F 88% 30.10 in 0.8 mi Calm Calm - N/A   Mist
1:53 AM 51.1 °F 48.0 °F 89% 30.09 in 0.5 mi Calm Calm - N/A Fog Fog
2:48 AM 51.8 °F 50.0 °F 94% 30.09 in 0.2 mi Calm Calm - N/A Fog Fog
2:53 AM 52.0 °F 50.0 °F 93% 30.09 in 0.5 mi Calm Calm - N/A Fog Fog
3:08 AM 52.0 °F 51.1 °F 97% 30.09 in 1.2 mi Calm Calm - N/A   Overcast
3:12 AM 52.0 °F 51.1 °F 97% 30.09 in 3.0 mi Calm Calm - N/A   Overcast
3:53 AM 53.1 °F 52.0 °F 96% 30.09 in 10.0 mi Calm Calm - N/A   Overcast
4:53 AM 54.0 °F 52.0 °F 93% 30.10 in 10.0 mi Calm Calm - N/A   Overcast
5:53 AM 54.0 °F 53.1 °F 97% 30.12 in 10.0 mi Calm Calm - N/A   Overcast
6:53 AM 55.0 °F 53.1 °F 93% 30.13 in 10.0 mi Calm Calm - N/A   Overcast
7:53 AM 55.9 °F 53.1 °F 90% 30.14 in 9.0 mi SE 3.5 mph - N/A   Overcast
8:53 AM 57.9 °F 53.1 °F 84% 30.17 in 10.0 mi NW 4.6 mph - N/A   Overcast
9:53 AM 59.0 °F 52.0 °F 78% 30.18 in 10.0 mi Calm Calm - N/A   Overcast
10:11 AM 59.0 °F 52.0 °F 78% 30.18 in 10.0 mi Calm Calm - N/A   Overcast
11:23 AM 60.1 °F 52.0 °F 75% 30.19 in 10.0 mi Variable 5.8 mph - N/A   Overcast
11:53 AM 60.1 °F 52.0 °F 75% 30.19 in 10.0 mi ENE 4.6 mph - N/A   Overcast
12:53 PM 61.0 °F 52.0 °F 72% 30.17 in 10.0 mi East 9.2 mph - N/A   Overcast
1:53 PM 62.1 °F 53.1 °F 72% 30.14 in 10.0 mi NE 5.8 mph - N/A   Overcast
2:53 PM 64.0 °F 53.1 °F 67% 30.12 in 10.0 mi NE 5.8 mph - N/A   Overcast
3:53 PM 63.0 °F 53.1 °F 70% 30.12 in 10.0 mi ENE 3.5 mph - N/A   Overcast
4:37 PM 64.0 °F 53.1 °F 67% 30.12 in 10.0 mi East 5.8 mph - N/A   Scattered Clouds
4:53 PM 64.0 °F 53.1 °F 67% 30.12 in 10.0 mi East 4.6 mph - N/A   Partly Cloudy
5:53 PM 62.1 °F 53.1 °F 72% 30.11 in 10.0 mi East 3.5 mph - N/A   Clear
6:53 PM 57.9 °F 53.1 °F 84% 30.10 in 10.0 mi ENE 4.6 mph - N/A   Clear
7:53 PM 59.0 °F 53.1 °F 81% 30.11 in 10.0 mi Calm Calm - N/A   Clear
8:53 PM 55.0 °F 53.1 °F 93% 30.11 in 10.0 mi Calm Calm - N/A   Clear
9:53 PM 55.9 °F 53.1 °F 90% 30.10 in 10.0 mi Calm Calm - N/A   Clear
10:53 PM 57.0 °F 54.0 °F 89% 30.09 in 10.0 mi ESE 4.6 mph - N/A   Clear
11:53 PM 57.9 °F 55.0 °F 90% 30.07 in 10.0 mi Calm Calm - N/A   Clear